Home > Weather > Montreux > Past weeks

Flag for Switzerland Past Weather in Montreux, Vaud, Switzerland — Yesterday and Last 2 Weeks

Now
76 °F

Partly sunny.


Feels Like: 78 °F
Forecast: 50 / 76 °F
Wind: 10 mph from North

Location: Aigle

Current Time: Jul 28, 2016 at 2:43:10 PM

Latest Report: Jul 28, 2016 at 2:00 PM


Visibility: 16 mi

Pressure: 30.03 "Hg

Humidity: 51%

Dew Point: 57 °F

Location of MontreuxLocation

Past Weather in Montreux — Graph

°F

Montreux Temperature Yesterday

Maximum temperature yesterday: 80 °F (at 3:00 PM)
Minimum temperature yesterday: 61 °F (at 5:00 AM)
Average temperature yesterday: 69 °F

High & Low Weather Summary for the Past Weeks

 TemperatureHumidityPressure
High88 °F (Jul 20, 5:00 PM)97% (Jul 22, 7:00 AM)30.31 "Hg (Jul 22, 7:00 AM)
Low46 °F (Jul 15, 6:00 AM)38% (Jul 16, 5:00 PM)29.90 "Hg (Jul 20, 5:00 PM)
Average67 °F76%30.09 "Hg
* Reported Jul 13 1:00 PM — Jul 28 1:00 PM, Montreux, Weather by CustomWeather, © 2016

Note: Actual official high and low records may vary slightly from our data, if they occured in-between our weather recording intervals... More about our weather records

Advertising

Montreux Weather History for the Previous 24 Hours

Scroll right to see more
 ConditionsComfort  
Time TempWeatherWind HumidityBarometerVisibility
1:00 PM
Thu, Jul 28
75 °FMild.10 mph58%30.03 "HgN/A
12:00 PM74 °FMild.9 mph63%30.05 "HgN/A
11:00 AM72 °FPassing clouds.5 mph63%30.06 "Hg25 mi
10:00 AM69 °FMild.1 mph69%30.07 "HgN/A
9:00 AM66 °FMild.5 mph76%30.08 "HgN/A
8:00 AM63 °FScattered clouds.1 mph86%30.09 "Hg19 mi
7:00 AM60 °FCool.3 mph92%30.09 "HgN/A
6:00 AM61 °FCool.3 mph92%30.08 "HgN/A
5:00 AM60 °FPassing clouds.5 mph94%30.09 "Hg9 mi
4:00 AM60 °FCool.2 mph94%30.10 "HgN/A
3:00 AM60 °FCool.1 mph95%30.11 "HgN/A
2:00 AM60 °FCool.3 mph94%30.10 "HgN/A
1:00 AM61 °FCool.3 mph88%30.10 "HgN/A
12:00 AM60 °FCool.1 mph95%30.10 "HgN/A
11:00 PM
Wed, Jul 27
62 °FMild.5 mph92%30.10 "HgN/A
10:00 PM64 °FMild.6 mph85%30.10 "HgN/A
9:00 PM65 °FMild.3 mph91%30.07 "HgN/A
8:00 PM67 °FPartly sunny.No wind82%30.06 "Hg17 mi
7:00 PM67 °FMild.8 mph80%30.07 "HgN/A
6:00 PM75 °FMild.5 mph59%29.99 "HgN/A
5:00 PM78 °FWarm.8 mph50%29.98 "HgN/A
4:00 PM79 °FWarm.10 mph51%29.97 "HgN/A
3:00 PM80 °FWarm.10 mph52%29.98 "HgN/A
2:00 PM79 °FScattered clouds.10 mph58%30.00 "Hg22 mi
Weather by CustomWeather, © 2016

See weather overviewHow to use our weather pages